RH
11 23 20 13 18 16 15 8 6 9 14 10 11 10 16 17 25 40 24 26 41 48 31 35 35 41 46 56 59 56 58 63 55 55 56 54 54 51 47 45 48 58 71 63 62 61 61 62 65
12 14 10 13 18 16 12 7 8 11 15 12 13 14 16 26 24 28 32 26 36 52 37 35 34 36 40 52 59 58 66 67 56 56 57 55 55 53 50 50 53 59 64 71 64 59 63 64 65
14 14 12 13 12 12 13 8 9 16 12 12 15 14 22 37 30 33 36 26 39 50 53 37 33 32 35 44 59 65 69 68 58 58 57 55 55 54 53 54 55 59 67 72 63 58 60 64 63
11 8 9 12 11 9 9 9 8 15 16 14 13 32 33 35 35 34 32 28 37 49 51 48 35 34 35 41 52 64 70 69 61 60 57 55 55 55 56 58 59 62 64 69 72 63 59 63 65
8 7 11 9 7 8 7 7 10 12 16 16 14 33 40 35 36 32 25 27 37 47 53 56 38 38 38 42 49 61 70 70 66 65 58 56 56 55 58 61 65 70 66 59 64 76 75 74 77
8 6 9 8 5 7 8 7 7 14 13 15 17 27 38 34 38 32 24 28 37 54 62 61 42 42 44 45 52 59 69 72 71 67 60 58 56 57 61 66 70 72 72 67 60 57 60 63 64
8 8 8 6 7 8 10 7 8 8 10 12 14 22 28 26 36 35 29 33 40 59 74 72 48 48 49 50 57 66 72 74 74 66 62 61 60 62 66 71 76 82 78 71 68 66 65 64 61
6 6 7 5 5 11 9 7 7 8 9 7 10 19 29 26 33 38 35 38 46 52 75 83 73 56 56 56 57 63 72 72 65 65 66 66 66 69 73 74 75 82 86 85 81 76 70 66 63
5 7 6 5 4 11 8 7 8 7 7 7 7 13 19 20 26 34 38 37 44 56 74 82 86 78 74 71 62 61 61 63 67 71 73 71 72 75 74 70 84 78 79 83 80 75 74 73 69
7 7 6 6 7 8 7 7 6 7 6 6 6 10 16 18 18 21 30 34 41 51 62 77 81 82 81 76 76 70 70 69 71 81 83 79 76 87 87 81 77 88 80 79 79 78 74 70 64
7 8 8 7 12 8 8 7 6 7 7 6 8 10 9 10 11 18 17 18 35 45 51 61 74 78 77 67 76 81 86 83 83 86 88 78 81 85 83 84 86 83 80 74 76 74 74 74 81
10 7 8 6 9 8 8 7 8 7 7 6 8 9 10 10 12 11 15 16 20 40 44 52 64 68 67 62 69 69 75 72 79 76 84 88 88 83 78 84 86 92 95 79 78 79 81 74 72
10 8 7 8 9 10 8 9 8 8 6 6 9 11 12 12 12 11 11 15 17 36 41 48 60 67 67 65 59 59 58 64 71 76 82 83 89 88 95 94 79 79 73 85 91 72 68 68 65
12 14 11 10 9 9 10 9 8 8 7 8 10 13 12 12 13 12 14 15 18 29 43 49 58 66 69 67 62 63 67 72 74 77 86 92 88 93 91 87 69 59 60 60 74 70 65 66 76
15 16 13 11 11 10 9 12 11 8 10 12 11 13 14 14 13 16 21 24 22 30 43 52 59 66 70 69 72 77 79 86 85 87 90 90 86 75 67 65 69 70 65 56 51 66 60 68 80
17 16 18 10 9 10 12 14 8 8 11 13 12 12 14 14 14 25 27 23 23 28 46 59 71 71 73 76 82 86 89 90 86 88 92 94 90 79 80 79 81 75 65 70 73 66 67 73 95
18 18 16 12 9 11 14 15 11 10 13 15 14 14 14 17 16 29 31 30 26 23 50 70 77 84 86 82 86 90 90 81 80 87 94 93 87 86 84 67 66 73 76 70 70 68 71 85 95
18 20 16 12 11 12 14 16 13 12 12 14 15 16 17 18 20 35 45 44 42 29 70 83 89 95 94 91 94 93 91 92 95 93 89 87 80 79 72 61 49 54 50 73 71 72 67 79 89
14 15 19 16 11 12 16 18 17 15 13 15 17 18 19 22 27 47 60 64 74 80 88 92 98 99 99 100 100 100 99 99 95 88 77 78 75 63 64 56 52 69 74 73 73 72 69 88 83
18 22 22 16 13 15 16 19 18 16 15 16 17 19 20 21 34 49 65 78 91 99 98 98 100 100 100 99 99 98 98 99 93 94 94 86 73 66 77 76 71 76 77 76 74 77 73 74 83
24 26 24 21 17 18 23 25 22 18 15 16 18 18 18 21 39 54 66 77 84 98 99 100 99 99 100 100 100 99 96 93 91 90 83 70 73 76 57 64 68 66 65 76 78 72 76 78 82
32 21 20 21 26 31 19 31 20 16 17 20 21 22 24 31 39 54 67 76 90 97 99 100 100 100 100 99 96 92 88 86 88 76 76 86 83 68 53 50 58 68 73 72 69 61 60 72 76
27 24 28 26 31 32 28 30 22 18 22 23 24 24 28 34 43 54 61 75 88 95 99 99 100 100 99 94 90 85 73 76 75 79 80 78 73 61 61 64 62 71 75 74 72 67 70 73 69
23 28 33 31 33 47 31 30 27 20 20 22 23 26 30 34 42 50 60 70 79 87 94 99 99 99 92 85 78 75 70 73 76 74 78 73 73 71 75 73 76 75 70 72 74 72 74 73 69
29 40 55 53 50 45 24 27 28 18 15 20 25 30 32 35 44 51 58 64 76 84 94 95 93 90 83 75 73 70 66 58 65 72 72 70 70 69 70 72 74 74 71 69 70 73 73 72 71
40 41 52 46 48 34 21 30 22 18 17 20 24 29 32 38 43 44 47 59 72 80 83 76 74 72 72 64 61 60 60 56 56 59 60 58 59 62 68 70 72 67 67 71 71 71 72 72 73
39 46 32 42 39 54 35 23 24 22 24 25 27 30 34 36 38 37 42 53 64 70 70 64 55 53 55 57 56 55 54 53 50 53 52 53 51 58 67 70 70 69 68 71 73 73 68 70 73
32 28 50 48 64 60 36 32 29 30 28 26 29 33 32 33 32 34 37 44 52 56 57 54 45 43 46 49 52 53 55 55 53 54 58 56 56 59 62 70 70 70 70 71 73 74 70 71 72
38 41 37 40 45 51 50 39 27 25 29 28 28 30 31 32 31 31 32 36 40 44 47 46 41 38 41 44 46 47 51 52 53 56 59 60 60 64 66 66 69 70 68 70 72 73 70 70 72
31 37 38 55 55 50 50 44 29 30 29 28 25 25 27 27 28 27 28 30 33 37 43 46 46 43 41 43 49 51 53 54 57 58 57 59 62 64 65 62 62 65 65 65 69 72 72 69 70
Wind_Speed
8 9 7 11 5 7 15 7 5 10 10 10 12 9 17 18 13 5 11 7 22 24 27 22 19 18 16 17 18 18 18 16 16 15 13 11 10 9 9 9 9 9 9 9 10 10 11 13 13
10 12 10 5 7 10 6 6 13 13 12 10 5 4 16 16 15 12 9 8 20 22 26 23 20 19 17 16 18 18 17 16 17 16 14 12 10 9 8 8 8 8 8 8 9 10 12 12 11
10 10 6 5 10 8 6 11 10 10 7 6 3 8 7 8 12 7 11 14 22 21 21 22 22 20 18 17 18 19 18 17 18 17 15 13 11 9 8 7 7 6 7 7 7 9 10 10 10
8 7 5 6 16 11 12 5 6 8 5 6 7 15 9 10 7 7 11 16 20 21 22 19 22 20 19 17 18 19 19 18 18 18 16 14 12 10 8 7 6 6 5 5 6 7 8 9 7
9 5 10 14 18 11 11 5 7 4 6 7 6 19 13 13 13 12 14 18 20 20 22 19 23 22 20 18 18 19 19 19 18 18 16 13 11 9 8 7 6 5 5 5 5 5 6 6 5
7 8 10 14 18 14 12 8 8 7 3 11 3 11 10 12 13 11 14 15 17 19 18 19 23 21 19 18 17 17 18 18 18 17 15 13 10 9 7 7 6 5 5 4 4 5 5 5 5
11 10 15 20 7 12 13 3 8 6 2 10 11 2 11 12 11 11 12 13 16 16 18 15 24 22 19 17 15 15 17 17 16 15 13 12 10 8 7 7 7 5 5 6 6 5 6 6 7
7 9 18 17 12 14 6 6 4 5 8 2 4 5 10 9 10 11 12 13 13 12 12 11 19 21 19 18 16 15 15 15 14 14 12 11 10 9 9 9 9 9 9 8 8 7 7 7 8
10 5 11 12 13 10 6 3 8 1 3 2 2 6 9 6 6 10 11 13 15 12 11 14 17 18 17 16 17 16 15 15 14 13 12 12 9 7 9 10 10 12 13 12 10 9 8 7 9
8 10 7 10 12 12 8 2 5 3 6 3 3 10 10 4 4 7 14 16 21 17 14 16 18 17 17 15 15 16 16 16 15 12 11 12 10 10 10 10 12 15 15 14 13 11 9 10 10
10 14 7 8 7 7 6 2 5 4 7 5 5 6 4 4 5 8 11 13 27 27 22 18 17 18 18 18 17 15 14 13 12 13 15 9 10 10 10 9 11 16 17 17 15 12 12 9 8
5 14 3 5 2 4 3 5 8 7 8 6 3 2 4 7 4 8 10 12 8 29 26 21 18 17 18 15 15 18 22 18 19 17 14 12 12 8 7 6 9 15 23 23 15 11 9 7 5
11 12 4 5 4 7 8 10 10 10 9 4 4 2 7 4 6 10 9 10 9 25 29 25 22 19 18 11 16 17 17 19 16 12 10 9 7 4 3 12 10 7 27 42 17 4 4 3 1
6 7 8 9 10 11 11 11 10 9 9 4 8 6 4 4 5 10 10 4 3 12 31 28 24 21 16 11 13 9 8 15 18 15 14 13 13 13 12 5 8 8 3 18 26 19 7 5 5
7 10 12 15 14 11 2 12 20 13 9 9 10 10 6 6 4 8 16 16 6 7 28 30 28 21 17 12 11 8 10 12 14 13 12 12 11 9 9 4 15 20 18 3 6 14 6 1 4
6 10 9 14 20 8 6 12 17 14 10 8 10 5 4 6 2 13 9 10 10 10 23 30 25 21 18 15 13 10 13 13 13 12 10 9 8 9 12 8 2 5 5 9 8 7 4 7 12
11 9 15 16 15 11 11 7 8 13 11 10 8 9 3 2 2 11 5 5 5 6 25 28 24 21 19 18 15 11 13 11 11 9 10 9 11 10 6 4 9 9 6 5 4 3 5 6 9
11 17 17 14 13 8 11 13 11 13 13 12 4 7 3 5 3 9 7 6 5 5 25 24 22 22 20 19 18 16 15 15 12 11 11 11 7 7 8 10 9 7 8 4 3 2 3 7 10
17 16 14 14 12 11 12 10 14 17 18 7 7 8 8 5 11 11 4 7 14 18 21 20 22 23 23 24 24 21 19 16 14 9 10 9 10 11 9 7 8 6 4 6 7 6 4 10 9
18 16 15 16 15 15 14 14 15 17 20 10 9 7 8 9 12 8 5 5 11 12 14 14 19 21 21 22 25 22 22 12 10 7 9 8 8 8 8 7 6 7 7 4 4 5 8 4 12
13 14 14 17 15 9 7 18 19 22 20 9 6 8 8 7 11 8 7 8 9 9 10 15 17 19 22 25 20 21 15 14 11 12 11 11 8 9 8 9 8 7 6 7 8 7 7 6 10
16 16 18 17 11 13 11 16 17 13 15 11 11 9 8 7 10 9 10 10 9 9 10 14 17 20 22 24 22 23 16 13 11 13 10 9 10 7 7 7 6 7 7 6 7 8 9 9 12
15 7 10 9 11 14 16 11 12 12 13 14 14 12 10 12 10 10 11 13 11 9 10 13 17 20 24 20 17 17 14 11 12 12 12 10 8 9 9 7 5 2 2 3 6 7 8 8 9
9 8 7 10 10 12 15 14 12 15 15 18 16 13 11 10 11 10 15 15 13 13 13 15 19 23 20 16 18 16 12 16 17 17 14 12 8 7 6 6 6 6 6 6 5 6 5 6 7
12 8 4 4 7 9 11 13 15 12 8 22 19 15 13 11 11 12 13 15 16 17 18 18 19 19 18 18 15 13 12 12 15 17 15 15 14 13 12 10 9 8 7 6 5 6 5 5 5
17 14 6 8 10 14 15 12 13 4 7 18 18 16 13 12 11 13 14 17 19 20 20 21 23 22 20 17 16 13 14 11 13 15 17 18 18 20 20 14 12 10 9 9 8 7 8 8 8
18 21 18 14 15 7 7 11 5 6 10 16 16 16 14 14 13 13 15 20 20 22 23 22 21 19 17 15 14 14 12 13 13 14 8 8 7 9 14 14 14 11 10 10 10 10 10 10 8
23 13 13 9 9 12 11 15 11 13 14 16 17 17 16 14 13 12 12 19 22 22 21 20 19 21 19 17 15 14 13 12 9 9 11 12 11 11 11 13 13 12 12 11 11 11 10 9 9
15 18 14 11 12 7 6 6 9 13 20 19 18 17 16 15 15 13 12 19 20 22 22 18 15 15 20 18 13 12 14 14 13 12 12 13 12 12 12 13 13 12 13 13 12 12 11 12 11
22 24 22 9 15 16 8 2 10 6 14 12 15 16 16 16 15 14 15 19 19 20 22 18 15 12 10 10 13 11 11 11 12 12 13 12 11 11 11 11 11 12 13 14 14 15 14 15 12
Wind_Direction
296 284 253 261 256 230 267 99 85 112 102 70 57 43 70 46 36 63 98 77 118 129 151 154 152 152 153 158 163 169 173 172 173 172 166 159 154 144 135 125 116 111 109 112 115 116 116 116 115
307 288 248 273 257 269 355 74 67 52 68 82 85 28 68 69 74 107 94 127 128 132 152 157 157 157 158 162 169 174 178 178 177 176 174 168 163 155 147 135 127 121 117 118 123 126 128 127 125
287 265 270 227 235 272 157 40 85 89 136 152 107 89 34 29 50 79 106 132 129 135 148 165 163 162 162 165 173 178 182 183 181 179 179 174 170 164 157 147 138 130 126 128 133 134 136 138 135
258 222 246 259 263 78 72 44 107 132 121 339 5 97 86 42 70 84 124 140 134 143 159 171 168 168 169 170 174 180 185 186 184 183 183 180 176 170 166 160 154 150 146 141 142 144 149 148 152
234 270 255 259 255 105 91 44 354 124 84 52 1 86 91 92 92 111 134 139 138 148 167 177 179 174 174 174 177 181 185 187 187 187 186 183 181 180 176 175 171 173 173 174 165 166 169 176 184
252 237 265 260 244 114 89 29 20 46 71 42 348 86 86 71 86 114 139 140 143 151 157 172 183 180 179 179 179 182 184 188 189 189 188 186 188 188 187 188 189 199 203 203 196 197 208 218 229
258 278 267 274 84 113 96 67 40 356 344 49 347 47 104 79 92 122 140 142 144 137 155 173 180 183 182 180 180 181 185 189 191 193 192 191 193 198 200 202 202 215 233 225 221 222 232 243 250
287 295 283 279 282 88 92 99 117 19 57 29 357 20 78 96 105 126 146 151 156 156 149 165 175 182 183 182 183 183 188 192 196 198 196 198 204 206 212 219 220 210 221 234 228 230 239 250 262
268 259 256 278 274 107 99 174 122 80 286 106 68 46 85 101 130 145 158 167 155 157 154 163 171 179 180 184 185 185 190 196 198 199 203 207 210 224 228 235 235 236 226 228 228 230 238 255 269
225 240 310 8 22 81 110 25 30 295 207 220 193 123 141 149 221 224 184 181 160 165 173 173 175 175 174 174 189 187 193 198 200 204 214 207 205 224 236 248 236 243 243 236 230 232 239 247 264
250 243 28 67 22 13 17 307 273 282 276 308 36 4 330 303 254 215 256 241 175 169 172 176 177 177 180 185 175 181 193 193 200 199 211 215 210 219 233 235 250 256 249 236 229 231 237 248 268
271 264 300 308 91 317 293 311 286 301 290 332 56 7 292 263 292 232 214 250 215 163 167 171 171 177 190 176 165 183 189 190 196 193 199 198 208 217 232 263 297 312 298 255 224 222 229 249 271
239 267 233 283 242 256 270 265 268 263 265 180 228 289 260 323 305 302 259 220 234 164 161 164 164 175 192 210 181 190 193 181 172 175 194 197 186 164 86 67 45 12 342 358 283 258 185 140 228
1 312 292 272 244 239 244 258 242 250 221 184 217 229 257 272 327 310 304 224 219 161 152 162 165 173 187 206 183 182 144 162 176 182 182 186 190 182 172 146 312 317 6 280 334 348 26 71 94
278 275 268 243 234 228 237 262 243 226 176 221 231 194 202 291 280 39 358 351 172 143 156 161 163 165 172 190 174 173 185 164 155 163 172 195 201 211 216 232 298 284 259 152 253 309 283 134 111
245 236 261 257 201 157 167 283 304 176 175 221 250 225 201 237 270 69 10 336 321 195 159 156 154 162 173 173 172 172 173 162 160 168 175 185 210 239 273 300 20 79 144 173 209 266 312 159 106
220 251 231 237 173 159 188 269 338 164 191 220 240 275 252 67 271 78 359 304 287 280 137 136 148 153 164 180 182 178 164 187 199 199 203 214 228 245 261 181 162 172 174 152 182 294 55 115 116
233 219 240 248 176 193 228 263 259 268 258 239 216 268 261 195 141 78 27 353 27 184 129 133 146 166 168 171 174 173 172 168 164 190 193 201 197 159 172 171 161 157 167 172 167 178 70 125 149
264 289 292 298 309 292 223 240 267 268 263 234 195 222 220 180 114 93 49 19 75 97 119 144 153 159 162 156 155 151 151 159 165 175 172 175 170 157 149 154 168 176 178 184 182 151 158 136 165
243 259 261 276 282 273 282 277 274 268 266 214 223 182 234 195 120 103 95 74 75 92 121 139 152 159 165 166 162 159 153 154 157 171 182 193 173 165 168 163 163 176 201 202 214 213 175 213 209
245 245 258 272 289 268 257 269 261 257 252 150 166 224 187 189 120 126 132 120 117 115 133 145 154 161 164 162 157 153 144 147 165 181 172 173 172 189 184 172 179 182 187 200 224 229 229 232 218
236 237 245 257 272 262 263 273 294 269 175 161 184 202 170 113 112 138 142 136 128 124 140 152 160 161 163 165 162 156 161 165 181 173 165 178 188 194 175 184 205 243 251 254 262 254 245 256 265
235 295 304 278 262 277 257 270 253 249 185 183 184 185 146 148 146 148 144 140 134 136 142 152 161 164 165 164 173 176 179 173 165 158 168 177 192 178 181 201 188 193 195 232 224 223 235 242 269
245 242 262 262 263 250 246 248 261 242 195 180 175 166 152 146 144 147 140 138 140 144 148 154 158 163 166 177 178 187 166 172 163 168 170 186 195 195 199 188 199 201 200 220 233 230 242 262 274
212 184 219 226 221 252 241 238 232 244 277 178 162 156 159 158 154 157 153 151 147 150 149 155 160 172 180 177 181 182 177 161 161 170 185 181 183 191 202 196 201 213 212 217 217 233 224 241 260
205 195 193 227 236 259 242 231 239 318 165 145 149 155 159 163 166 170 159 152 158 159 163 170 174 175 181 173 173 171 173 182 185 184 202 185 194 201 194 188 203 208 208 213 219 220 229 226 224
192 216 228 272 284 281 240 277 106 151 126 139 155 157 167 173 179 176 153 158 164 169 177 183 177 165 169 174 177 179 191 196 199 186 185 188 185 150 170 186 204 211 213 217 220 225 230 234 235
234 201 213 235 235 244 234 236 247 179 163 163 166 173 176 177 183 169 169 167 170 179 178 186 180 171 175 181 189 194 194 207 210 195 195 212 199 206 192 198 210 217 220 221 225 233 241 235 245
208 233 224 211 228 230 254 258 238 235 172 181 179 179 178 181 185 177 180 175 177 172 175 188 194 180 176 180 189 201 199 204 205 207 210 215 209 205 210 210 216 222 234 232 230 235 246 228 227
210 216 220 210 210 231 251 174 103 93 165 185 186 183 184 189 189 183 191 182 183 176 173 185 195 205 199 191 198 211 209 219 209 213 214 209 209 209 214 222 227 234 240 241 237 233 234 240 235